| time (UTC) | temp F | wind direction | speed MPH | gust MPH | rain 1hr in | rain 24hr in | rain mn in | humidity % | barometer mb |
| 20260510154337 | 70 | 25 | 1.0 | 6.0 | 0.00 | 0.00 | 0.00 | 76 | 1016.9 |
| 20260510153337 | 69 | 28 | 3.0 | 9.0 | 0.00 | 0.00 | 0.00 | 77 | 1017.0 |
| 20260510152337 | 69 | 355 | 3.0 | 8.0 | 0.00 | 0.00 | 0.00 | 78 | 1016.8 |
| 20260510151338 | 69 | 5 | 2.0 | 5.0 | 0.00 | 0.00 | 0.00 | 78 | 1016.9 |
| 20260510150338 | 68 | 49 | 1.0 | 4.0 | 0.00 | 0.00 | 0.00 | 80 | 1016.8 |
| 20260510145337 | 68 | 16 | 1.0 | 4.0 | 0.00 | 0.00 | 0.00 | 80 | 1016.8 |
| 20260510144337 | 68 | 18 | 2.0 | 6.0 | 0.00 | 0.00 | 0.00 | 80 | 1016.9 |
| 20260510143336 | 67 | 61 | 0.0 | 1.0 | 0.00 | 0.00 | 0.00 | 80 | 1016.8 |
| 20260510142816 | 67 | 36 | 0.0 | 3.0 | 0.00 | 0.00 | 0.00 | 81 | 1017.0 |
| 20260510141335 | 67 | 41 | 1.0 | 4.0 | 0.00 | 0.00 | 0.00 | 80 | 1017.0 |
| 20260510140336 | 67 | 19 | 3.0 | 6.0 | 0.00 | 0.00 | 0.00 | 82 | 1017.1 |
| 20260510134814 | 65 | 335 | 3.0 | 5.0 | 0.00 | 0.00 | 0.00 | 86 | 1017.2 |
| 20260510133809 | 64 | 346 | 0.0 | 2.0 | 0.00 | 0.00 | 0.00 | 88 | 1017.2 |
| 20260510132332 | 63 | 355 | 0.0 | 0.0 | 0.00 | 0.00 | 0.00 | 88 | 1016.9 |
| 20260510131330 | 63 | 355 | 0.0 | 0.0 | 0.00 | 0.00 | 0.00 | 88 | 1016.7 |
| 20260510130332 | 62 | 355 | 0.0 | 0.0 | 0.00 | 0.00 | 0.00 | 88 | 1016.3 |
| 20260510125332 | 62 | 355 | 0.0 | 0.0 | 0.00 | 0.00 | 0.00 | 88 | 1016.1 |
| 20260510124331 | 61 | 355 | 0.0 | 0.0 | 0.00 | 0.00 | 0.00 | 89 | 1016.1 |
| 20260510123330 | 61 | 355 | 0.0 | 1.0 | 0.00 | 0.00 | 0.00 | 89 | 1016.0 |
| 20260510122330 | 60 | 334 | 0.0 | 2.0 | 0.00 | 0.00 | 0.00 | 89 | 1015.7 |
| 20260510121818 | 60 | 334 | 0.0 | 3.0 | 0.00 | 0.00 | 0.00 | 87 | 1015.4 |
| 20260510120330 | 61 | 126 | 0.0 | 2.0 | 0.00 | 0.00 | 0.00 | 86 | 1015.0 |
| 20260510115329 | 62 | 123 | 1.0 | 4.0 | 0.00 | 0.00 | 0.00 | 85 | 1014.8 |
| 20260510114330 | 61 | 38 | 0.0 | 3.0 | 0.00 | 0.00 | 0.00 | 87 | 1014.8 |
| 20260510113329 | 60 | 26 | 2.0 | 3.0 | 0.00 | 0.00 | 0.00 | 88 | 1014.8 |
| 20260510112330 | 60 | 5 | 0.0 | 2.0 | 0.00 | 0.00 | 0.00 | 88 | 1014.7 |
| 20260510111331 | 60 | 355 | 1.0 | 3.0 | 0.00 | 0.00 | 0.00 | 87 | 1014.5 |
| 20260510110328 | 61 | 355 | 0.0 | 2.0 | 0.00 | 0.00 | 0.00 | 85 | 1014.5 |
| 20260510105810 | 61 | 284 | 2.0 | 4.0 | 0.00 | 0.00 | 0.00 | 84 | 1014.4 |
| 20260510104329 | 62 | 344 | 2.0 | 4.0 | 0.00 | 0.00 | 0.00 | 82 | 1014.4 |
| 20260510103328 | 64 | 170 | 3.0 | 6.0 | 0.00 | 0.00 | 0.00 | 81 | 1014.3 |
| 20260510102328 | 63 | 198 | 5.0 | 10.0 | 0.00 | 0.00 | 0.00 | 82 | 1014.3 |
| 20260510101326 | 63 | 222 | 4.0 | 7.0 | 0.00 | 0.00 | 0.00 | 82 | 1014.3 |
| 20260510100326 | 62 | 200 | 2.0 | 8.0 | 0.00 | 0.00 | 0.00 | 85 | 1014.3 |
| 20260510095758 | 62 | 183 | 1.0 | 3.0 | 0.00 | 0.00 | 0.00 | 86 | 1014.2 |
| 20260510094327 | 62 | 326 | 0.0 | 0.0 | 0.00 | 0.00 | 0.00 | 86 | 1014.1 |
| 20260510093325 | 61 | 296 | 0.0 | 0.0 | 0.00 | 0.00 | 0.00 | 85 | 1014.0 |
| 20260510092324 | 61 | 306 | 0.0 | 0.0 | 0.00 | 0.00 | 0.00 | 86 | 1013.6 |
| 20260510091325 | 61 | 27 | 0.0 | 0.0 | 0.00 | 0.00 | 0.00 | 85 | 1012.9 |
| 20260510090320 | 62 | 142 | 0.0 | 0.0 | 0.00 | 0.00 | 0.00 | 83 | 1012.9 |
| 20260510085813 | 61 | 143 | 0.0 | 0.0 | 0.00 | 0.00 | 0.00 | 84 | 1013.4 |
| 20260510084322 | 60 | 164 | 0.0 | 0.0 | 0.00 | 0.00 | 0.00 | 84 | 1013.5 |
| 20260510083809 | 61 | 171 | 0.0 | 0.0 | 0.00 | 0.00 | 0.00 | 82 | 1013.3 |
| 20260510082320 | 62 | 178 | 0.0 | 0.0 | 0.00 | 0.00 | 0.00 | 78 | 1013.5 |
| 20260510081322 | 62 | 126 | 0.0 | 0.0 | 0.00 | 0.00 | 0.00 | 79 | 1013.4 |
| 20260510080321 | 61 | 126 | 0.0 | 0.0 | 0.00 | 0.00 | 0.00 | 80 | 1013.6 |
| 20260510075809 | 60 | 126 | 0.0 | 0.0 | 0.00 | 0.00 | 0.00 | 82 | 1013.5 |
| 20260510074322 | 60 | 355 | 0.0 | 0.0 | 0.00 | 0.00 | 0.00 | 81 | 1013.5 |
| 20260510073320 | 60 | 355 | 0.0 | 0.0 | 0.00 | 0.00 | 0.00 | 81 | 1013.5 |
| 20260510072318 | 60 | 355 | 0.0 | 0.0 | 0.00 | 0.00 | 0.00 | 81 | 1013.2 |
| 20260510071320 | 60 | 355 | 0.0 | 0.0 | 0.00 | 0.00 | 0.00 | 82 | 1013.4 |
| 20260510070319 | 60 | 355 | 0.0 | 0.0 | 0.00 | 0.00 | 0.00 | 82 | 1013.7 |
| 20260510064319 | 60 | 355 | 0.0 | 0.0 | 0.00 | 0.00 | 0.00 | 82 | 1014.0 |
| 20260510063318 | 60 | 355 | 0.0 | 0.0 | 0.00 | 0.00 | 0.00 | 82 | 1014.2 |
| 20260510062320 | 60 | 355 | 0.0 | 0.0 | 0.00 | 0.00 | 0.00 | 80 | 1014.3 |
| 20260510061316 | 61 | 355 | 0.0 | 0.0 | 0.00 | 0.00 | 0.00 | 79 | 1014.4 |
| 20260510060316 | 62 | 355 | 0.0 | 0.0 | 0.00 | 0.00 | 0.00 | 77 | 1014.5 |
| 20260510055809 | 62 | 355 | 0.0 | 0.0 | 0.00 | 0.00 | 0.00 | 77 | 1014.2 |
| 20260510054318 | 62 | 355 | 0.0 | 0.0 | 0.00 | 0.00 | 0.00 | 76 | 1014.0 |
| 20260510053318 | 62 | 355 | 0.0 | 0.0 | 0.00 | 0.00 | 0.00 | 76 | 1014.1 |
| 20260510052318 | 61 | 355 | 0.0 | 0.0 | 0.00 | 0.00 | 0.00 | 76 | 1013.9 |
| 20260510051752 | 61 | 355 | 0.0 | 0.0 | 0.00 | 0.00 | 0.00 | 76 | 1013.7 |
| 20260510050315 | 60 | 355 | 0.0 | 0.0 | 0.00 | 0.00 | 0.00 | 77 | 1013.7 |
| 20260510045309 | 59 | 355 | 0.0 | 0.0 | 0.00 | 0.00 | 0.00 | 79 | 1013.8 |
| 20260510044309 | 59 | 251 | 0.0 | 0.0 | 0.00 | 0.00 | 0.00 | 80 | 1013.4 |
| 20260510043309 | 59 | 234 | 0.0 | 0.0 | 0.00 | 0.00 | 0.00 | 78 | 1013.4 |
| 20260510042308 | 59 | 217 | 0.0 | 0.0 | 0.00 | 0.00 | 0.00 | 79 | 1013.3 |
| 20260510041308 | 60 | 217 | 0.0 | 0.0 | 0.00 | 0.00 | 0.00 | 76 | 1013.3 |
| 20260510040308 | 61 | 159 | 0.0 | 0.0 | 0.00 | 0.00 | 0.00 | 75 | 1013.3 |
| 20260510035308 | 61 | 55 | 0.0 | 0.0 | 0.00 | 0.00 | 0.00 | 73 | 1013.2 |
| 20260510034309 | 62 | 55 | 0.0 | 0.0 | 0.00 | 0.00 | 0.00 | 72 | 1012.9 |
| 20260510033307 | 62 | 55 | 0.0 | 0.0 | 0.00 | 0.00 | 0.00 | 71 | 1012.8 |
| 20260510032307 | 62 | 55 | 0.0 | 0.0 | 0.00 | 0.00 | 0.00 | 69 | 1012.5 |
| 20260510031307 | 63 | 196 | 0.0 | 0.0 | 0.00 | 0.00 | 0.00 | 67 | 1012.3 |
| 20260510030304 | 64 | 196 | 0.0 | 0.0 | 0.00 | 0.00 | 0.00 | 66 | 1012.3 |
| 20260510025306 | 64 | 196 | 0.0 | 0.0 | 0.00 | 0.00 | 0.00 | 63 | 1012.2 |
| 20260510024302 | 65 | 289 | 0.0 | 0.0 | 0.00 | 0.00 | 0.00 | 64 | 1012.1 |
| 20260510023302 | 66 | 217 | 0.0 | 0.0 | 0.00 | 0.00 | 0.00 | 63 | 1012.1 |
| 20260510022744 | 66 | 267 | 0.0 | 0.0 | 0.00 | 0.00 | 0.00 | 58 | 1011.8 |
| 20260510021305 | 67 | 245 | 0.0 | 0.0 | 0.00 | 0.00 | 0.00 | 58 | 1011.6 |
| 20260510020303 | 66 | 245 | 0.0 | 0.0 | 0.00 | 0.00 | 0.00 | 58 | 1011.3 |
| 20260510015306 | 66 | 197 | 0.0 | 0.0 | 0.00 | 0.00 | 0.00 | 61 | 1011.2 |
| 20260510014302 | 67 | 190 | 0.0 | 0.0 | 0.00 | 0.02 | 0.00 | 63 | 1011.0 |
| 20260510013303 | 70 | 34 | 0.0 | 0.0 | 0.00 | 0.05 | 0.00 | 54 | 1010.8 |
| 20260510012300 | 71 | 34 | 0.0 | 0.0 | 0.00 | 0.07 | 0.00 | 51 | 1010.7 |
| 20260510011258 | 72 | 34 | 0.0 | 0.0 | 0.00 | 0.08 | 0.00 | 45 | 1010.6 |
| 20260510010259 | 73 | 34 | 0.0 | 0.0 | 0.00 | 0.09 | 0.00 | 41 | 1010.6 |
| 20260510005258 | 74 | 34 | 0.0 | 0.0 | 0.00 | 0.09 | 0.00 | 40 | 1010.4 |
| 20260510004259 | 75 | 34 | 0.0 | 0.0 | 0.00 | 0.10 | 0.00 | 39 | 1010.1 |
| 20260510003259 | 76 | 34 | 0.0 | 1.0 | 0.00 | 0.10 | 0.00 | 39 | 1010.1 |
| 20260510002732 | 77 | 31 | 0.0 | 1.0 | 0.00 | 0.10 | 0.00 | 37 | 1010.1 |
| 20260510001259 | 77 | 50 | 0.0 | 0.0 | 0.00 | 0.10 | 0.00 | 35 | 1010.0 |
| 20260510000259 | 78 | 41 | 0.0 | 3.0 | 0.00 | 0.10 | 0.00 | 34 | 1010.0 |
| 20260509235257 | 78 | 39 | 0.0 | 2.0 | 0.00 | 0.10 | 0.00 | 35 | 1010.4 |
| 20260509234755 | 78 | 34 | 0.0 | 1.0 | 0.00 | 0.10 | 0.00 | 34 | 1010.4 |
| 20260509232254 | 78 | 79 | 0.0 | 2.0 | 0.00 | 0.10 | 0.00 | 34 | 1010.6 |
| 20260509231728 | 78 | 101 | 0.0 | 4.0 | 0.00 | 0.10 | 0.00 | 34 | 1010.7 |
| 20260509230253 | 78 | 49 | 0.0 | 2.0 | 0.00 | 0.10 | 0.00 | 34 | 1010.6 |
| 20260509225725 | 78 | 120 | 0.0 | 0.0 | 0.00 | 0.10 | 0.00 | 33 | 1010.6 |
| 20260509224251 | 79 | 186 | 1.0 | 3.0 | 0.00 | 0.10 | 0.00 | 33 | 1010.7 |
| 20260509223253 | 79 | 113 | 1.0 | 4.0 | 0.00 | 0.10 | 0.00 | 32 | 1010.9 |
| 20260509222251 | 79 | 108 | 1.0 | 4.0 | 0.00 | 0.10 | 0.00 | 33 | 1010.9 |
| 20260509221249 | 79 | 96 | 0.0 | 3.0 | 0.00 | 0.10 | 0.00 | 34 | 1010.8 |
| 20260509220251 | 79 | 69 | 2.0 | 8.0 | 0.00 | 0.10 | 0.00 | 33 | 1010.8 |
| 20260509215251 | 79 | 109 | 1.0 | 3.0 | 0.00 | 0.10 | 0.00 | 37 | 1010.7 |
| 20260509214249 | 80 | 180 | 2.0 | 6.0 | 0.00 | 0.10 | 0.00 | 32 | 1010.7 |
| 20260509213247 | 80 | 128 | 2.0 | 4.0 | 0.00 | 0.10 | 0.00 | 32 | 1010.7 |
| 20260509212246 | 80 | 161 | 2.0 | 4.0 | 0.00 | 0.10 | 0.00 | 34 | 1011.0 |
| 20260509211243 | 80 | 58 | 1.0 | 4.0 | 0.00 | 0.10 | 0.00 | 31 | 1011.2 |
| 20260509210725 | 80 | 11 | 1.0 | 4.0 | 0.00 | 0.10 | 0.00 | 30 | 1011.3 |
| 20260509205240 | 81 | 35 | 2.0 | 5.0 | 0.00 | 0.10 | 0.00 | 33 | 1011.3 |
| 20260509204239 | 80 | 155 | 2.0 | 5.0 | 0.00 | 0.10 | 0.00 | 31 | 1011.3 |
| 20260509203239 | 80 | 114 | 1.0 | 6.0 | 0.00 | 0.10 | 0.00 | 31 | 1011.3 |
| 20260509202731 | 80 | 112 | 1.0 | 5.0 | 0.00 | 0.10 | 0.00 | 33 | 1011.2 |
| 20260509201240 | 80 | 120 | 2.0 | 7.0 | 0.00 | 0.10 | 0.00 | 30 | 1011.4 |
| 20260509200712 | 80 | 113 | 1.0 | 6.0 | 0.00 | 0.10 | 0.00 | 36 | 1011.5 |
| 20260509195240 | 80 | 250 | 1.0 | 7.0 | 0.00 | 0.10 | 0.00 | 31 | 1011.6 |
| 20260509194240 | 80 | 22 | 1.0 | 2.0 | 0.00 | 0.10 | 0.00 | 35 | 1011.4 |
| 20260509193730 | 80 | 211 | 2.0 | 7.0 | 0.00 | 0.10 | 0.00 | 32 | 1011.6 |
| 20260509192239 | 80 | 340 | 1.0 | 6.0 | 0.00 | 0.10 | 0.00 | 36 | 1011.6 |
| 20260509191237 | 80 | 355 | 1.0 | 4.0 | 0.00 | 0.10 | 0.00 | 33 | 1011.7 |
| 20260509190716 | 80 | 324 | 2.0 | 4.0 | 0.00 | 0.10 | 0.00 | 41 | 1011.6 |
| 20260509185237 | 80 | 291 | 2.0 | 8.0 | 0.00 | 0.10 | 0.00 | 35 | 1011.8 |
| 20260509184237 | 79 | 196 | 3.0 | 6.0 | 0.00 | 0.10 | 0.00 | 35 | 1011.9 |
| 20260509183237 | 79 | 134 | 3.0 | 7.0 | 0.00 | 0.10 | 0.00 | 34 | 1011.9 |
| 20260509182238 | 78 | 176 | 4.0 | 9.0 | 0.00 | 0.10 | 0.00 | 35 | 1011.8 |
| 20260509181725 | 78 | 171 | 3.0 | 6.0 | 0.00 | 0.10 | 0.00 | 41 | 1011.9 |
| 20260509180232 | 78 | 155 | 3.0 | 5.0 | 0.00 | 0.10 | 0.00 | 42 | 1012.0 |
| 20260509175231 | 78 | 17 | 2.0 | 5.0 | 0.00 | 0.10 | 0.00 | 43 | 1012.1 |
| 20260509174232 | 78 | 156 | 0.0 | 2.0 | 0.00 | 0.10 | 0.00 | 45 | 1012.1 |
| 20260509173233 | 77 | 192 | 3.0 | 8.0 | 0.00 | 0.10 | 0.00 | 46 | 1012.2 |
| 20260509172232 | 77 | 173 | 3.0 | 8.0 | 0.00 | 0.10 | 0.00 | 52 | 1012.3 |
| 20260509171231 | 76 | 171 | 3.0 | 8.0 | 0.00 | 0.10 | 0.00 | 55 | 1012.3 |
| 20260509170232 | 75 | 144 | 1.0 | 5.0 | 0.00 | 0.10 | 0.00 | 59 | 1012.3 |
| 20260509165234 | 74 | 194 | 1.0 | 6.0 | 0.00 | 0.10 | 0.00 | 56 | 1012.3 |
| 20260509164234 | 74 | 155 | 0.0 | 3.0 | 0.00 | 0.10 | 0.00 | 61 | 1012.3 |
| 20260509163231 | 73 | 122 | 1.0 | 4.0 | 0.00 | 0.10 | 0.00 | 61 | 1012.4 |
| 20260509162231 | 72 | 180 | 4.0 | 7.0 | 0.00 | 0.10 | 0.00 | 69 | 1012.5 |
| 20260509161230 | 72 | 179 | 3.0 | 6.0 | 0.00 | 0.10 | 0.00 | 69 | 1012.6 |
| 20260509160231 | 71 | 176 | 3.0 | 7.0 | 0.00 | 0.10 | 0.00 | 75 | 1012.6 |
| 20260509155718 | 70 | 164 | 3.0 | 6.0 | 0.00 | 0.10 | 0.00 | 73 | 1012.5 |